Starlink 11245

operational
NORAD ID: 60925 Int'l Des: 2024-155 Owner: SPXS Country: US Constellation: starlink
LEOCIRCULAR

About Starlink 11245

Description loading...

Live Position

Loading 3D Globe...

Upcoming Passes

Altitude History

Altitude vs Time

uPlot chart will show altitude changes over time

Two-Line Element Set

1 60925U 24155B 26050.05902807 .00001521 00000-0 17415-4 0 9994
2 60925 53.1580 73.2858 0001532 108.9652 251.1532 15.69707775 85478
Epoch: Feb 19, 2026 • Age: 8 hours

Current Status

Altitude 360.0 km
Velocity 7.70 km/s
Sub-Earth Point 18.39°N, 159.38°E
Launch Date Aug 31, 2024
Age 1.4 years
Type internet

Technical Details

Classification Payload
Mass 960.00 kg
Dry Mass 910.00 kg
Total Mass 960.00 kg
Length 0.30 m
Diameter 4.10 m
Span 29.00 m
Shape Box + pan
Manufacturer SPXS
Bus Type Starlink V2MD
Phase Status In Orbit
Owner/State SPXS/US

Large Constellations

Loading constellations...